ERS 2 DEB

Satellite information

Favourite Embed

Satellite Type and Status

DEBRISIN ORBIT

Key statistics

Satellite ERS 2 DEB at a glance.

Uptime

11195

Days in orbit

Revolutions

≈ 14.5

Per day

Orbit

SSO

Sun Synchronous Orbit

Inclination

98.3

Latest

Satellite identification and parameters

Extended collection of information and parameters for ERS 2 DEB.

Object identification

Identified? True

Debris? True

Object name: ERS 2 DEB

International designator: 1995-021F

Object number (NORAD): 35392

Object ID (CCSDS): 35392

Country: EUROPEAN SPACE AGENCY (ESA)

Current information (Y/N): Y

RCS size: SMALL

Orbital parameters

Period: 99.088 minutes

Inclination: 98.2942 deg

SMA: 7093.167 km

Apoapsis: 716.924 km

Periapsis: 713.141 km

RAAN: 314.8413 deg

Eccentricy: 0.00026664

Argument of periapsis: 347.5592 deg

Mean anomaly: 12.5538 deg

Mean motion: 14.53257086 rev/day

Mean motion (dot): 0.00005934 rev/day2

B* drag term: 0.0014401052 1/REarth

Two-line elements (TLE)

Creation date: Dec. 13, 2025, 4:32 a.m.

Reference frame: TEME

Reference center: EARTH

Epoch: Dec. 12, 2025, 8:25 p.m. UTC

TLE line 0: 0 ERS 2 DEB

TLE line 1: 1 35392U 95021F 25346.85119770 .00005934 00000-0 14401-2 0 9990

TLE line 2: 2 35392 98.2942 314.8413 0002666 347.5592 12.5538 14.53257086942142

Live tracking on map

Real-time ground track for satellite ERS 2 DEB.

In-orbit conjunctions

A list of the most updated potential collisions computed for object ERS 2 DEB.

Target Orbit TCA Probability of collision Miss distance Type
CZ-6A DEB LEO 2024-10-22 02:20:32 0.0001060562 211.0 (m) DEBRIS

Associated space launch

ERS (European Remote Sensing Satellite) are a family of multi-disciplinary Earth Observation Satellites.

ERS 2 DEB was lifted into orbit during the mission ‘Ariane 40 | ERS-2’, on board a Ariane 40 space rocket.

The launch took place on April 21, 1995, 1:44 a.m. from Ariane Launch Area 2.

For more information about the launch, click the button.

Launch to space Ariane 40 | ERS-2
Ariane 40 | ERS-2

Agency: N/A

Status: Launch Successful

Launch date: April 21, 1995, 1:44 a.m. UTC

Rocket: Ariane 40

Launch pad: Ariane Launch Area 2

Location: Guiana Space Centre, French Guiana

...

Latest news about this satellite

News about space launch
Impending European satellite reentry highlights debris mitigation challenges

The impending reentry of a defunct European satellite serves as a reminder of the hazards posed by existing objects even as agencies work to mitigate the growth of orbital debris.

News about space launch
A big European satellite will make an uncontrolled return to Earth Wednesday

What goes up must come down.


Newsletter sign-up

Weekly statistics, charts and insights to help you stay on top of the space industry.